Ken Boothe Sr — WDG3360 — position and weather

sailwx.info

Track history (hours):
 
Tides and Currents Weather Stations Pressure Air Temp Water Temp Dewpoint Dewpoint Depression Visibility Wind Speed Wind Dir Waves Ship Positions

Ken Boothe Sr

Owner: AMERICAN STEAMSHIP COMPANY, WILLIAMSVILLE, NY. More information available from US FCC via Universal Licensing System and Coast Guard Vessel Documentation Center.

Last reported at 2014-Oct-23 01:33 UTC. Time now 2014-Oct-23 02:25 UTC.
Position N 45°49' W 084°43'.

Length 30 m; draft 6 m.

Type: Towing. MMSI: 367525230.

Date/timePositionNaut miles runAvg speedWind from/ knotsBaromVisibWave heightAir tempDewpointWater temp
2014-Oct-23 01:33N 45°49' W 084°43'1212.0
2014-Oct-23 00:33N 45°50' W 084°60'9 8.9
2014-Oct-22 23:34N 45°45' W 085°10'1211.9
2014-Oct-22 22:33N 45°35' W 085°20'1212.0
2014-Oct-22 21:33N 45°25' W 085°31'1212.0
2014-Oct-22 20:33N 45°16' W 085°41'1211.9
2014-Oct-22 19:33N 45°06' W 085°51'1111.5
2014-Oct-22 18:33N 44°58' W 086°02'1211.4
2014-Oct-22 17:30N 44°51' W 086°15'1211.7
2014-Oct-22 16:29N 44°40' W 086°24'  
2014-Oct-19 21:18N 45°33' W 086°28'810.7
2014-Oct-19 20:33N 45°37' W 086°18'1111.0
2014-Oct-19 19:33N 45°42' W 086°04'1111.1
2014-Oct-19 18:33N 45°47' W 085°50'1111.0
2014-Oct-19 17:33N 45°52' W 085°37'1110.9
2014-Oct-19 16:33N 45°53' W 085°21'1111.4
2014-Oct-19 15:33N 45°51' W 085°05'1111.5
2014-Oct-19 14:33N 45°50' W 084°48'1111.5
2014-Oct-19 13:33N 45°45' W 084°33'1111.0
2014-Oct-19 12:33N 45°42' W 084°18'1111.2
2014-Oct-19 11:33N 45°37' W 084°04'  
2014-Oct-16 03:29N 42°26' W 080°16'1212.3
2014-Oct-16 02:33N 42°30' W 080°02'  
Track history (hours):
 
Tides and Currents Weather Stations Pressure Air Temp Water Temp Dewpoint Dewpoint Depression Visibility Wind Speed Wind Dir Waves Ship Positions

Ken Boothe Sr

Owner: AMERICAN STEAMSHIP COMPANY, WILLIAMSVILLE, NY. More information available from US FCC via Universal Licensing System and Coast Guard Vessel Documentation Center.

Last reported at 2014-Oct-23 01:33 UTC. Time now 2014-Oct-23 02:25 UTC.
Position N 45°49' W 084°43'.

Length 30 m; draft 6 m.

Type: Towing. MMSI: 367525230.

Date/timePositionNaut miles runAvg speedWind from/ knotsBaromVisibWave heightAir tempDewpointWater temp
2014-Oct-23 01:33N 45°49' W 084°43'1212.0
2014-Oct-23 00:33N 45°50' W 084°60'9 8.9
2014-Oct-22 23:34N 45°45' W 085°10'1211.9
2014-Oct-22 22:33N 45°35' W 085°20'1212.0
2014-Oct-22 21:33N 45°25' W 085°31'1212.0
2014-Oct-22 20:33N 45°16' W 085°41'1211.9
2014-Oct-22 19:33N 45°06' W 085°51'1111.5
2014-Oct-22 18:33N 44°58' W 086°02'1211.4
2014-Oct-22 17:30N 44°51' W 086°15'1211.7
2014-Oct-22 16:29N 44°40' W 086°24'  
2014-Oct-19 21:18N 45°33' W 086°28'810.7
2014-Oct-19 20:33N 45°37' W 086°18'1111.0
2014-Oct-19 19:33N 45°42' W 086°04'1111.1
2014-Oct-19 18:33N 45°47' W 085°50'1111.0
2014-Oct-19 17:33N 45°52' W 085°37'1110.9
2014-Oct-19 16:33N 45°53' W 085°21'1111.4
2014-Oct-19 15:33N 45°51' W 085°05'1111.5
2014-Oct-19 14:33N 45°50' W 084°48'1111.5
2014-Oct-19 13:33N 45°45' W 084°33'1111.0
2014-Oct-19 12:33N 45°42' W 084°18'1111.2
2014-Oct-19 11:33N 45°37' W 084°04'  
2014-Oct-16 03:29N 42°26' W 080°16'1212.3
2014-Oct-16 02:33N 42°30' W 080°02'  

Dump ship's entire track history